Home > Weather > Duluth > Past weeks

Flag for U.S.A. Weather for the Past 2 Weeks in Duluth, Minnesota, U.S.A.

Now
10 °F

Overcast.


Feels Like: -5 °F
Forecast: -1 / 10 °F
Wind: 13 mph from Northwest

Location: Sky Harbor Airport

Current Time: Feb 8, 2016 at 9:53:16 PM

Latest Report: Feb 8, 2016 at 9:14 PM


Visibility: 10 mi

Pressure: 30.00 "Hg

Humidity: 67%

Dew point: 1 °F

Location of DuluthLocation

Historic Weather in Duluth — Graph

°F

Duluth Temperature Yesterday

Maximum temperature yesterday: 37 °F (at 12:13 PM)
Minimum temperature yesterday: 21 °F (at 11:54 PM)
Average temperature yesterday: 33 °F

High & Low Weather Summary for the Past Weeks

 TemperatureHumidityPressure
High43 °F (Jan 30, 12:14 PM)100% (Jan 25, 7:13 AM)30.32 "Hg (Jan 25, 7:13 AM)
Low5 °F (Feb 4, 12:34 AM)49% (Feb 3, 6:33 PM)29.38 "Hg (Jan 27, 4:14 PM)
Average26 °F79%29.85 "Hg
* Reported Jan 24 8:14 PM — Feb 8 8:34 PM, Duluth, Weather by CustomWeather, © 2016

Note: Actual official high and low records may vary slightly from our data, if they occured in-between our weather recording intervals... More about our weather records

Advertising

Duluth Weather History for the Previous 24 Hours

 ConditionsComfort  
Time TempWeatherWind HumidityBarometerVisibility
8:34 PM
Mon, Feb 8
10 °FOvercast.13 mph67%30.00 "Hg10 mi
8:14 PM10 °FOvercast.13 mph67%29.99 "Hg10 mi
7:53 PM10 °FOvercast.17 mph67%29.99 "Hg10 mi
7:34 PM12 °FOvercast.15 mph67%29.99 "Hg10 mi
6:54 PM12 °FMostly cloudy.10 mph67%29.98 "Hg10 mi
6:34 PM12 °FOvercast.13 mph67%29.98 "Hg10 mi
6:13 PM12 °FLight snow. Overcast.15 mph67%29.97 "Hg10 mi
5:54 PM12 °FLight snow. Mostly cloudy.12 mph67%29.97 "Hg10 mi
5:13 PM14 °FMore clouds than sun.13 mph62%29.97 "Hg10 mi
4:54 PM14 °FMore clouds than sun.17 mph67%29.97 "Hg10 mi
4:13 PM14 °FMostly cloudy.15 mph67%29.96 "Hg10 mi
3:54 PM16 °FMostly cloudy.13 mph62%29.95 "Hg10 mi
3:14 PM16 °FOvercast.15 mph62%29.94 "Hg10 mi
2:54 PM14 °FLight snow. More clouds than sun.13 mph67%29.93 "Hg10 mi
2:33 PM16 °FLight snow. Overcast.17 mph67%29.93 "Hg10 mi
2:14 PM16 °FLight snow. Mostly cloudy.12 mph67%29.92 "Hg10 mi
1:54 PM16 °FLight snow. Mostly cloudy.15 mph67%29.91 "Hg10 mi
1:33 PM14 °FCloudy.15 mph67%29.91 "Hg10 mi
1:14 PM16 °FLight snow. Cloudy.17 mph67%29.90 "Hg7 mi
12:54 PM14 °FLight snow. Mostly cloudy.16 mph73%29.91 "Hg4 mi
12:33 PM14 °FLight snow. More clouds than sun.17 mph73%29.92 "Hg3 mi
12:13 PM14 °FLight snow. Overcast.15 mph73%29.91 "Hg10 mi
11:54 AM14 °FMostly cloudy.15 mph67%29.91 "Hg10 mi
11:34 AM14 °FLight snow. Mostly cloudy.18 mph67%29.91 "Hg10 mi
11:13 AM14 °FOvercast.17 mph67%29.91 "Hg10 mi
10:54 AM14 °FOvercast.20 mph73%29.91 "Hg10 mi
10:34 AM14 °FOvercast.20 mph73%29.90 "Hg10 mi
10:14 AM12 °FOvercast.16 mph79%29.90 "Hg10 mi
9:54 AM12 °FOvercast.17 mph73%29.89 "Hg10 mi
9:34 AM12 °FLight snow. Overcast.13 mph79%29.89 "Hg7 mi
9:13 AM12 °FOvercast.17 mph79%29.88 "Hg10 mi
8:54 AM12 °FLight snow. Overcast.17 mph79%29.88 "Hg10 mi
8:34 AM12 °FOvercast.20 mph79%29.88 "Hg10 mi
8:13 AM12 °FLight snow. Overcast.14 mph79%29.87 "Hg10 mi
7:54 AM12 °FLight snow. Overcast.12 mph79%29.87 "Hg10 mi
7:34 AM12 °FLight snow. Overcast.13 mph79%29.85 "Hg10 mi
7:13 AM12 °FLight snow. Overcast.14 mph79%29.85 "Hg10 mi
6:54 AM14 °FOvercast.15 mph73%29.85 "Hg10 mi
6:34 AM14 °FLight snow. Overcast.10 mph73%29.84 "Hg10 mi
6:13 AM14 °FOvercast.12 mph73%29.83 "Hg10 mi
5:54 AM16 °FLight snow. Overcast.9 mph67%29.83 "Hg10 mi
5:33 AM16 °FOvercast.14 mph73%29.82 "Hg10 mi
5:14 AM16 °FLight snow. Overcast.13 mph73%29.81 "Hg10 mi
4:54 AM16 °FLight snow. Overcast.16 mph73%29.80 "HgN/A
4:33 AM16 °FOvercast.10 mph73%29.79 "HgN/A
4:14 AM16 °FOvercast.13 mph79%29.78 "HgN/A
3:54 AM16 °FMostly cloudy.14 mph79%29.78 "HgN/A
3:33 AM16 °FOvercast.16 mph79%29.76 "HgN/A
3:14 AM16 °FMostly cloudy.14 mph79%29.76 "HgN/A
2:50 AM18 °FOvercast.16 mph73%29.75 "HgN/A
2:34 AM18 °FOvercast.17 mph79%29.74 "HgN/A
2:14 AM18 °FOvercast.17 mph79%29.73 "HgN/A
1:53 AM18 °FOvercast.20 mph79%29.72 "HgN/A
1:34 AM19 °FOvercast.15 mph73%29.72 "Hg10 mi
1:14 AM19 °FMostly cloudy.16 mph79%29.72 "Hg10 mi
12:53 AM21 °FOvercast.18 mph80%29.71 "Hg2 mi
12:34 AM21 °FLight snow. Overcast.13 mph80%29.72 "Hg10 mi
12:13 AM21 °FOvercast.12 mph80%29.71 "HgN/A
11:54 PM
Sun, Feb 7
21 °FOvercast.13 mph86%29.70 "HgN/A
11:33 PM23 °FOvercast.17 mph80%29.69 "HgN/A
11:14 PM23 °FOvercast.24 mph80%29.68 "HgN/A
10:54 PM25 °FOvercast.20 mph80%29.67 "HgN/A
10:33 PM25 °FMostly cloudy.16 mph80%29.67 "HgN/A
10:14 PM25 °FMostly cloudy.17 mph80%29.67 "HgN/A
9:33 PM27 °FLight snow. Overcast.16 mph80%29.66 "Hg7 mi
Weather by CustomWeather, © 2016

See weather overviewHow to use our weather pages